TimeHST,TemperatureF,Dew PointF,Humidity,Sea Level PressureIn,VisibilityMPH,Wind Direction,Wind SpeedMPH,Gust SpeedMPH,PrecipitationIn,Events,Conditions,WindDirDegrees,DateUTC
12:54 AM,69.1,63.0,81,30.14,10.0,NE,10.4,-,0.00,,Scattered Clouds,40,2013-02-25 10:54:00
1:54 AM,69.1,63.0,81,30.12,10.0,NE,13.8,-,0.00,,Clear,50,2013-02-25 11:54:00
2:54 AM,70.0,63.0,78,30.10,10.0,NE,12.7,-,N/A,,Clear,50,2013-02-25 12:54:00
3:54 AM,70.0,63.0,78,30.09,10.0,ENE,11.5,-,N/A,,Scattered Clouds,60,2013-02-25 13:54:00
4:54 AM,68.0,64.0,87,30.09,10.0,NE,9.2,-,0.01,,Mostly Cloudy,50,2013-02-25 14:54:00
5:54 AM,68.0,62.1,81,30.10,10.0,NE,10.4,-,N/A,,Clear,50,2013-02-25 15:54:00
6:54 AM,69.1,62.1,78,30.12,10.0,NE,9.2,-,N/A,,Partly Cloudy,50,2013-02-25 16:54:00
7:54 AM,70.0,63.0,78,30.13,10.0,NE,10.4,-,N/A,,Partly Cloudy,50,2013-02-25 17:54:00
8:54 AM,73.0,63.0,71,30.14,10.0,NE,16.1,-,N/A,,Partly Cloudy,50,2013-02-25 18:54:00
9:54 AM,75.0,64.0,69,30.15,10.0,NE,19.6,25.3,N/A,,Partly Cloudy,50,2013-02-25 19:54:00
10:54 AM,77.0,63.0,62,30.15,10.0,ENE,18.4,26.5,N/A,,Scattered Clouds,60,2013-02-25 20:54:00
11:54 AM,78.1,64.0,62,30.13,10.0,NE,25.3,32.2,N/A,,Partly Cloudy,40,2013-02-25 21:54:00
12:54 PM,79.0,64.9,62,30.11,10.0,NE,24.2,32.2,N/A,,Scattered Clouds,40,2013-02-25 22:54:00
1:54 PM,79.0,64.9,62,30.08,10.0,NE,20.7,29.9,N/A,,Scattered Clouds,50,2013-02-25 23:54:00
2:54 PM,77.0,64.9,66,30.07,10.0,ENE,17.3,27.6,N/A,,Scattered Clouds,60,2013-02-26 00:54:00
3:54 PM,77.0,64.9,66,30.07,10.0,ENE,18.4,32.2,N/A,,Scattered Clouds,70,2013-02-26 01:54:00
4:54 PM,75.0,64.0,69,30.07,10.0,ENE,19.6,24.2,N/A,,Scattered Clouds,60,2013-02-26 02:54:00
5:54 PM,73.0,66.0,79,30.09,10.0,NE,17.3,24.2,N/A,,Scattered Clouds,50,2013-02-26 03:54:00
6:54 PM,72.0,64.9,78,30.12,10.0,NE,16.1,21.9,N/A,,Scattered Clouds,50,2013-02-26 04:54:00
7:54 PM,72.0,64.9,78,30.15,10.0,NE,13.8,-,0.00,,Scattered Clouds,50,2013-02-26 05:54:00
8:54 PM,71.1,64.0,78,30.17,10.0,NE,11.5,18.4,N/A,,Clear,50,2013-02-26 06:54:00
9:54 PM,71.1,64.0,78,30.19,10.0,NE,16.1,-,N/A,,Partly Cloudy,40,2013-02-26 07:54:00
10:54 PM,71.1,64.0,78,30.19,10.0,ENE,11.5,-,0.00,,Scattered Clouds,60,2013-02-26 08:54:00
11:54 PM,70.0,63.0,78,30.18,10.0,ENE,11.5,19.6,N/A,,Clear,60,2013-02-26 09:54:00